Medford, WI

10:21 AM CST on February 24, 2018 (GMT -0600)
Taylor County

Weather History for KMDZ - June, 2012

Change the Weather History Date:

Friday, June 22, 2012

  Actual Average Record
Temperature  
Mean Temperature 67 °F -  
Max Temperature 75 °F 75 °F 88 °F (1983)
Min Temperature 57 °F 53 °F 40 °F (1959)
Cooling Degree Days 2    
Growing Degree Days 17 (Base 50)    
Moisture  
Dew Point 57 °F    
Average Humidity 68    
Maximum Humidity 94    
Minimum Humidity 50    
Precipitation  
Precipitation 0.00 in - - ()
Sea Level Pressure  
Sea Level Pressure 29.99 in    
Wind  
Wind Speed 8 mph (SW)    
Max Wind Speed 14 mph    
Max Gust Speed 23 mph    
Visibility 10 miles    
Events      
Averages and records for this station are not official NWS values.
T = Trace of Precipitation, MM = Missing Value Source: NWS Daily Summary

Daily Weather History Graph

Daily Weather History Graph

Search for Another Location

Airport or City:

Trip Planner

Search our weather history database for the weather conditions in past years. The results will help you decide how hot, cold, wet, or windy it might be!

Date:

Astronomy

Jun. 22, 2012 Rise Set
Actual Time 5:14 AM CDT 8:52 PM CDT
Civil Twilight 4:36 AM CDT 9:29 PM CDT
Nautical Twilight 3:46 AM CDT 10:19 PM CDT
Astronomical Twilight 2:40 AM CDT 11:26 PM CDT
Moon 8:21 AM CDT (6/22) 10:39 PM CDT (6/22)
Length of Visible Light 16h 52m
Length of Day
15h 37m
Waxing Crescent, 9% of the Moon is Illuminated
Jun 22
Waxing Crescent
Jun 26
First Quarter
Jul 3
Full
Jul 10
Last Quarter
Jul 18
New

Hourly Weather History & Observations

Time (CDT) Temp. Dew Point Humidity Pressure Visibility Wind Dir Wind Speed Gust Speed Precip Events Conditions
11:35 AM 71.6 °F 59.0 °F 64% 30.02 in 10.0 mi West 9.2 mph - N/A   Clear
11:55 AM 71.6 °F 57.2 °F 60% 30.01 in 10.0 mi West 8.1 mph - N/A   Scattered Clouds
12:15 PM 71.6 °F 57.2 °F 60% 30.01 in 10.0 mi WNW 8.1 mph - N/A   Scattered Clouds
12:35 PM 73.4 °F 57.2 °F 57% 30.01 in 10.0 mi West 12.7 mph 17.3 mph N/A   Scattered Clouds
12:55 PM 73.4 °F 57.2 °F 57% 30.00 in 10.0 mi West 12.7 mph 16.1 mph N/A   Scattered Clouds
1:15 PM 73.4 °F 59.0 °F 61% 29.99 in 10.0 mi West 10.4 mph - N/A   Scattered Clouds
1:35 PM 73.4 °F 57.2 °F 57% 29.99 in 10.0 mi West 13.8 mph 18.4 mph N/A   Scattered Clouds
1:55 PM 73.4 °F 57.2 °F 57% 29.99 in 10.0 mi West 13.8 mph - N/A   Scattered Clouds
2:15 PM 73.4 °F 57.2 °F 57% 29.99 in 10.0 mi West 12.7 mph 23.0 mph N/A   Scattered Clouds
2:35 PM 73.4 °F 57.2 °F 57% 29.99 in 10.0 mi West 11.5 mph 18.4 mph N/A   Scattered Clouds
2:55 PM 75.2 °F 55.4 °F 50% 29.99 in 10.0 mi West 13.8 mph 19.6 mph N/A   Scattered Clouds
3:15 PM 75.2 °F 55.4 °F 50% 29.99 in 10.0 mi WNW 13.8 mph 18.4 mph N/A   Scattered Clouds
3:35 PM 75.2 °F 57.2 °F 53% 29.99 in 10.0 mi West 13.8 mph 18.4 mph N/A   Scattered Clouds
3:55 PM 75.2 °F 55.4 °F 50% 29.99 in 10.0 mi West 11.5 mph - N/A   Mostly Cloudy
4:15 PM 75.2 °F 55.4 °F 50% 29.98 in 10.0 mi West 9.2 mph 16.1 mph N/A   Mostly Cloudy
4:35 PM 75.2 °F 55.4 °F 50% 29.98 in 10.0 mi WNW 9.2 mph - N/A   Scattered Clouds
4:55 PM 73.4 °F 57.2 °F 57% 29.98 in 10.0 mi NW 5.8 mph 9.2 mph N/A   Scattered Clouds
5:15 PM 71.6 °F 57.2 °F 60% 29.98 in 10.0 mi East 9.2 mph - N/A   Mostly Cloudy
5:35 PM 69.8 °F 57.2 °F 64% 29.98 in 10.0 mi East 8.1 mph - N/A   Mostly Cloudy
5:55 PM 69.8 °F 59.0 °F 68% 29.98 in 10.0 mi East 5.8 mph - N/A   Mostly Cloudy
6:15 PM 69.8 °F 57.2 °F 64% 29.98 in 10.0 mi ESE 5.8 mph - N/A   Scattered Clouds
6:35 PM 68.0 °F 59.0 °F 73% 29.98 in 10.0 mi ESE 4.6 mph - N/A   Clear
6:55 PM 69.8 °F 59.0 °F 68% 29.98 in 10.0 mi ESE 3.5 mph - N/A   Clear
7:15 PM 69.8 °F 59.0 °F 68% 29.98 in 10.0 mi SE 3.5 mph - N/A   Clear
7:35 PM 68.0 °F 57.2 °F 68% 29.98 in 10.0 mi ESE 5.8 mph - N/A   Clear
7:55 PM 66.2 °F 59.0 °F 78% 29.98 in 10.0 mi SE 3.5 mph - N/A   Scattered Clouds
8:15 PM 66.2 °F 57.2 °F 73% 29.98 in 10.0 mi SE 4.6 mph - N/A   Scattered Clouds
8:35 PM 64.4 °F 57.2 °F 77% 29.98 in 10.0 mi SE 3.5 mph - N/A   Clear
8:55 PM 64.4 °F 57.2 °F 77% 29.98 in 10.0 mi ESE 3.5 mph - N/A   Clear
9:15 PM 64.4 °F 59.0 °F 83% 29.99 in 10.0 mi Calm Calm - N/A   Clear
9:35 PM 62.6 °F 59.0 °F 88% 29.99 in 10.0 mi Calm Calm - N/A   Clear
9:55 PM 62.6 °F 59.0 °F 88% 29.99 in 10.0 mi Calm Calm - N/A   Clear
10:15 PM 60.8 °F 55.4 °F 82% 30.00 in 10.0 mi SE 3.5 mph - N/A   Clear
10:35 PM 60.8 °F 55.4 °F 82% 30.00 in 10.0 mi SSE 3.5 mph - N/A   Clear
10:55 PM 59.0 °F 55.4 °F 88% 30.00 in 10.0 mi Calm Calm - N/A   Clear
11:15 PM 59.0 °F 55.4 °F 88% 30.01 in 10.0 mi Calm Calm - N/A   Clear
11:35 PM 59.0 °F 55.4 °F 88% 30.01 in 10.0 mi Calm Calm - N/A   Clear
11:55 PM 57.2 °F 55.4 °F 94% 30.01 in 10.0 mi Calm Calm - N/A   Clear